DW2891 Weather Reports


time (UTC)temp
C
wind
direction
speed
KPH
gust
KPH
rain 1hr
cm
rain 24hr
cm
rain mn
cm
humidity
%
barometer
mb
20260504160104 22 306 0.0 9.7 0.00 0.00 0.00 44 1009.4
20260504151104 20 346 0.0 8.0 0.00 0.00 0.00 50 1009.5
20260504150103 18 317 3.2 14.5 0.00 0.00 0.00 52 1009.5
20260504140604 17 344 0.0 3.2 0.00 0.00 0.00 63 1009.2
20260504140104 17 313 1.6 8.0 0.00 0.00 0.00 62 1009.2
20260504130603 16 5 0.0 0.0 0.00 0.00 0.00 61 1008.8
20260504130104 16 5 0.0 0.0 0.00 0.00 0.00 61 1008.7
20260504120104 17 5 0.0 3.2 0.00 0.00 0.00 55 1008.9
20260504110603 19 282 0.0 3.2 0.00 0.00 0.00 50 1008.7
20260504110103 19 30 0.0 0.0 0.00 0.00 0.00 52 1008.8
20260504100604 19 312 4.8 22.5 0.00 0.00 0.00 49 1008.8
20260504100104 19 327 1.6 12.9 0.00 0.00 0.00 52 1008.7
20260504090104 20 327 1.6 12.9 0.00 0.00 0.00 45 1008.4
20260504080604 20 325 3.2 12.9 0.00 0.00 0.00 49 1008.4
20260504080104 20 355 0.0 0.0 0.00 0.00 0.00 50 1008.4
20260504070104 20 325 0.0 3.2 0.00 0.00 0.00 46 1008.8
20260504060104 21 240 0.0 0.0 0.00 0.00 0.00 40 1008.6
20260504050603 20 240 0.0 0.0 0.00 0.00 0.00 42 1008.8
20260504050104 20 240 0.0 0.0 0.00 0.00 0.00 41 1008.8
20260504045603 20 240 0.0 0.0 0.00 0.00 0.00 42 1008.9
20260504045103 20 240 0.0 0.0 0.00 0.00 0.00 41 1008.9
20260504044603 20 240 0.0 0.0 0.00 0.00 0.00 44 1009.0
20260504044103 20 240 0.0 0.0 0.00 0.00 0.00 43 1009.0
20260504043603 20 240 0.0 0.0 0.00 0.00 0.00 42 1009.0
20260504043103 20 240 0.0 0.0 0.00 0.00 0.00 43 1009.0
20260504042603 21 240 0.0 0.0 0.00 0.00 0.00 42 1009.0
20260504042103 21 240 0.0 0.0 0.00 0.00 0.00 42 1009.0
20260504041104 21 240 0.0 0.0 0.00 0.00 0.00 40 1009.0
20260504040603 21 240 0.0 0.0 0.00 0.00 0.00 41 1009.1
20260504040103 21 240 0.0 0.0 0.00 0.00 0.00 40 1009.1
20260504035603 21 240 0.0 0.0 0.00 0.00 0.00 40 1009.1
20260504035105 20 240 0.0 0.0 0.00 0.00 0.00 40 1009.1
20260504034605 21 240 0.0 0.0 0.00 0.00 0.00 42 1009.1
20260504034105 21 240 0.0 0.0 0.00 0.00 0.00 40 1009.1
20260504032605 20 240 0.0 0.0 0.00 0.00 0.00 43 1009.2
20260504032105 20 240 0.0 0.0 0.00 0.00 0.00 44 1009.2
20260504031605 20 240 0.0 0.0 0.00 0.00 0.00 44 1009.2
20260504031104 20 240 0.0 0.0 0.00 0.00 0.00 45 1009.2
20260504030605 20 240 0.0 0.0 0.00 0.00 0.00 45 1009.2
20260504030105 20 240 0.0 0.0 0.00 0.00 0.00 45 1009.4
20260504025605 20 240 0.0 0.0 0.00 0.00 0.00 47 1009.3
20260504025105 21 240 0.0 0.0 0.00 0.00 0.00 45 1009.3
20260504024605 21 240 0.0 0.0 0.00 0.00 0.00 46 1009.3
20260504024105 21 240 0.0 0.0 0.00 0.00 0.00 47 1009.3
20260504023605 21 240 0.0 0.0 0.00 0.00 0.00 46 1009.3
20260504023105 21 240 0.0 0.0 0.00 0.00 0.00 46 1009.3
20260504022605 21 240 0.0 0.0 0.00 0.00 0.00 46 1009.3
20260504022105 21 240 0.0 0.0 0.00 0.00 0.00 45 1009.4
20260504021605 21 265 0.0 0.0 0.00 0.00 0.00 46 1009.4
20260504021105 21 264 0.0 0.0 0.00 0.00 0.00 45 1009.4
20260504020605 21 264 0.0 0.0 0.00 0.00 0.00 45 1009.4
20260504020105 21 265 0.0 0.0 0.00 0.00 0.00 45 1009.4
20260504015605 21 264 0.0 0.0 0.00 0.00 0.00 44 1009.5
20260504015105 21 264 0.0 3.2 0.00 0.00 0.00 46 1009.5
20260504014605 21 355 0.0 0.0 0.00 0.00 0.00 47 1009.5
20260504014105 22 355 0.0 0.0 0.00 0.00 0.00 45 1009.5
20260504013605 22 355 0.0 0.0 0.00 0.00 0.00 47 1009.6
20260504013105 22 355 0.0 0.0 0.00 0.00 0.00 46 1009.6
20260504012605 22 355 0.0 0.0 0.00 0.00 0.00 46 1009.6
20260504012105 22 355 0.0 0.0 0.00 0.00 0.00 46 1009.7
20260504011105 22 355 0.0 0.0 0.00 0.00 0.00 46 1009.9
20260504010606 22 355 0.0 0.0 0.00 0.00 0.00 46 1009.9
20260504010105 22 355 0.0 0.0 0.00 0.00 0.00 46 1009.9
20260504005605 23 355 0.0 0.0 0.00 0.00 0.00 46 1010.0
20260504005106 23 355 0.0 0.0 0.00 0.00 0.00 47 1010.1
20260504004605 23 355 0.0 0.0 0.00 0.00 0.00 45 1010.1
20260504004105 23 355 0.0 0.0 0.00 0.00 0.00 45 1010.1
20260504003605 23 355 0.0 0.0 0.00 0.00 0.00 43 1010.1
20260504003105 23 355 0.0 0.0 0.00 0.00 0.00 44 1010.2
20260504002605 24 355 0.0 0.0 0.00 0.00 0.00 40 1010.2
20260504002105 24 355 0.0 0.0 0.00 0.00 0.00 41 1010.3
20260504001605 25 355 0.0 0.0 0.00 0.00 0.00 40 1010.3
20260504001105 25 355 0.0 0.0 0.00 0.00 0.00 40 1010.3
20260504000605 25 355 1.6 8.0 0.00 0.00 0.00 37 1010.5
20260504000106 25 306 1.6 14.5 0.00 0.00 0.00 34 1010.5
20260503235604 25 309 0.0 16.1 0.00 0.00 0.00 34 1010.6
20260503235105 25 302 0.0 9.7 0.00 0.00 0.00 36 1010.6
20260503234105 25 311 0.0 9.7 0.00 0.00 0.00 35 1010.6
20260503233604 25 314 0.0 0.0 0.00 0.00 0.00 37 1010.6
20260503233105 25 349 0.0 0.0 0.00 0.00 0.00 36 1010.6
20260503232605 25 263 0.0 0.0 0.00 0.00 0.00 38 1010.7
20260503232104 25 263 0.0 0.0 0.00 0.00 0.00 38 1010.8
20260503231605 25 263 0.0 1.6 0.00 0.00 0.00 38 1010.9
20260503231105 25 262 0.0 1.6 0.00 0.00 0.00 36 1011.0
20260503230605 25 262 0.0 1.6 0.00 0.00 0.00 34 1011.1
20260503230105 26 262 0.0 1.6 0.00 0.00 0.00 35 1011.1
20260503225604 26 262 0.0 1.6 0.00 0.00 0.00 33 1011.1
20260503225105 26 261 0.0 3.2 0.00 0.00 0.00 34 1011.2
20260503224604 25 341 0.0 0.0 0.00 0.00 0.00 36 1011.2
20260503223605 25 268 0.0 4.8 0.00 0.00 0.00 37 1011.4
20260503223105 25 268 1.6 8.0 0.00 0.00 0.00 35 1011.4
20260503222605 25 319 0.0 1.6 0.00 0.00 0.00 35 1011.5
20260503222105 25 320 0.0 8.0 0.00 0.00 0.00 36 1011.5
20260503221605 25 323 0.0 0.0 0.00 0.00 0.00 36 1011.6
20260503220605 25 272 0.0 8.0 0.00 0.00 0.00 36 1011.8
20260503220105 25 260 0.0 1.6 0.00 0.00 0.00 34 1011.8
20260503215605 25 260 0.0 8.0 0.00 0.00 0.00 35 1011.9
20260503215104 25 255 0.0 3.2 0.00 0.00 0.00 36 1011.9
20260503214605 25 259 1.6 4.8 0.00 0.00 0.00 36 1012.1
20260503214106 25 303 0.0 1.6 0.00 0.00 0.00 38 1012.1
20260503213605 25 303 0.0 8.0 0.00 0.00 0.00 36 1012.1
20260503212605 25 288 0.0 1.6 0.00 0.00 0.00 40 1012.2
20260503212106 25 333 0.0 0.0 0.00 0.00 0.00 39 1012.2
20260503211605 25 86 0.0 1.6 0.00 0.00 0.00 38 1012.3
20260503211105 25 91 0.0 8.0 0.00 0.00 0.00 38 1012.3
20260503210605 24 265 1.6 8.0 0.00 0.00 0.00 40 1012.3
20260503210105 24 262 0.0 8.0 0.00 0.00 0.00 38 1012.3
20260503205604 24 271 0.0 12.9 0.00 0.00 0.00 38 1012.5
20260503205104 24 242 0.0 9.7 0.00 0.00 0.00 39 1012.4
20260503203105 23 262 1.6 12.9 0.00 0.00 0.00 41 1012.6
20260503202106 24 165 3.2 16.1 0.00 0.00 0.00 39 1012.7
20260503201605 24 272 0.0 9.7 0.00 0.00 0.00 41 1012.7
20260503201105 23 267 0.0 4.8 0.00 0.00 0.00 41 1012.9
20260503200605 23 26 0.0 1.6 0.00 0.00 0.00 44 1013.0
20260503200106 23 331 0.0 8.0 0.00 0.00 0.00 42 1013.0
20260503195605 23 113 0.0 0.0 0.00 0.00 0.00 42 1013.1
20260503195105 23 227 0.0 1.6 0.00 0.00 0.00 44 1013.2
20260503194106 23 19 0.0 1.6 0.00 0.00 0.00 47 1013.3
20260503193105 23 69 0.0 9.7 0.00 0.00 0.00 43 1013.4
20260503192605 23 351 0.0 0.0 0.00 0.00 0.00 42 1013.4
20260503192105 23 61 1.6 12.9 0.00 0.00 0.00 44 1013.5
20260503191104 24 15 3.2 12.9 0.00 0.00 0.00 40 1013.5
20260503190606 24 348 0.0 0.0 0.00 0.00 0.00 39 1013.6
20260503190105 23 350 9.7 22.5 0.00 0.00 0.00 39 1013.7
20260503185605 23 352 4.8 16.1 0.00 0.00 0.00 39 1013.7
20260503185105 23 312 3.2 16.1 0.00 0.00 0.00 38 1013.7
20260503184605 23 312 1.6 9.7 0.00 0.00 0.00 42 1013.7
20260503184104 23 332 0.0 8.0 0.00 0.00 0.00 41 1013.8
20260503183604 23 355 0.0 1.6 0.00 0.00 0.00 48 1013.8
20260503183104 23 89 0.0 8.0 0.00 0.00 0.00 46 1013.8
20260503182606 22 355 0.0 8.0 0.00 0.00 0.00 51 1013.8
20260503182104 23 55 0.0 9.7 0.00 0.00 0.00 48 1013.8
20260503181604 22 69 0.0 4.8 0.00 0.00 0.00 50 1013.8
20260503180605 22 60 1.6 9.7 0.00 0.00 0.00 46 1013.8
20260503180105 22 42 1.6 8.0 0.00 0.00 0.00 45 1013.8
20260503175605 22 308 3.2 22.5 0.00 0.00 0.00 45 1013.8
20260503175105 22 304 8.0 14.5 0.00 0.00 0.00 43 1013.9
20260503174605 23 322 3.2 12.9 0.00 0.00 0.00 40 1013.9
20260503174106 23 320 6.4 14.5 0.00 0.00 0.00 43 1013.9
20260503173605 22 32 4.8 19.3 0.00 0.00 0.00 43 1014.0
20260503173105 22 341 0.0 19.3 0.00 0.00 0.00 44 1014.0
20260503172605 22 315 14.5 22.5 0.00 0.00 0.00 42 1014.0
20260503172104 22 200 0.0 3.2 0.00 0.00 0.00 40 1014.0
20260503171604 22 267 0.0 1.6 0.00 0.00 0.00 44 1014.1
20260503171105 22 11 0.0 8.0 0.00 0.00 0.00 46 1014.1
20260503170105 21 324 0.0 14.5 0.00 0.00 0.00 46 1014.1